TimeCST,TemperatureF,Dew PointF,Humidity,Sea Level PressureIn,VisibilityMPH,Wind Direction,Wind SpeedMPH,Gust SpeedMPH,PrecipitationIn,Events,Conditions,WindDirDegrees,DateUTC
12:53 AM,36.0,23.0,59,30.45,10.0,NNE,4.6,-,N/A,,Clear,20,2012-12-30 06:53:00
1:53 AM,35.1,23.0,61,30.46,10.0,NE,3.5,-,N/A,,Clear,50,2012-12-30 07:53:00
2:53 AM,36.0,24.1,62,30.45,10.0,NE,5.8,-,N/A,,Clear,50,2012-12-30 08:53:00
3:53 AM,34.0,23.0,64,30.44,10.0,NE,5.8,-,N/A,,Clear,50,2012-12-30 09:53:00
4:53 AM,33.1,23.0,66,30.44,10.0,ENE,5.8,-,N/A,,Clear,60,2012-12-30 10:53:00
5:53 AM,32.0,23.0,69,30.45,10.0,East,5.8,-,N/A,,Clear,80,2012-12-30 11:53:00
6:53 AM,32.0,23.0,69,30.46,10.0,ENE,4.6,-,N/A,,Clear,70,2012-12-30 12:53:00
7:53 AM,34.0,24.1,67,30.46,10.0,East,5.8,-,N/A,,Clear,100,2012-12-30 13:53:00
8:53 AM,37.0,26.1,65,30.46,10.0,ESE,8.1,-,N/A,,Clear,110,2012-12-30 14:53:00
9:53 AM,39.9,25.0,55,30.48,10.0,East,8.1,-,N/A,,Clear,90,2012-12-30 15:53:00
10:53 AM,43.0,24.1,47,30.47,10.0,ESE,5.8,-,N/A,,Clear,120,2012-12-30 16:53:00
11:53 AM,44.1,25.0,47,30.44,10.0,SE,9.2,-,N/A,,Clear,130,2012-12-30 17:53:00
12:53 PM,45.0,24.1,44,30.40,10.0,SE,8.1,-,N/A,,Clear,130,2012-12-30 18:53:00
1:53 PM,46.9,24.1,41,30.38,10.0,SSE,5.8,-,N/A,,Clear,150,2012-12-30 19:53:00
2:53 PM,48.0,26.1,42,30.35,10.0,ESE,6.9,-,N/A,,Clear,110,2012-12-30 20:53:00
3:53 PM,48.0,26.1,42,30.34,10.0,ESE,6.9,-,N/A,,Clear,110,2012-12-30 21:53:00
4:53 PM,48.0,27.0,44,30.31,10.0,East,8.1,-,N/A,,Clear,90,2012-12-30 22:53:00
5:53 PM,46.0,28.0,50,30.30,10.0,East,4.6,-,N/A,,Clear,90,2012-12-30 23:53:00
6:53 PM,44.1,28.9,55,30.30,10.0,East,4.6,-,N/A,,Clear,80,2012-12-31 00:53:00
7:53 PM,44.1,28.9,55,30.27,10.0,East,6.9,-,N/A,,Clear,80,2012-12-31 01:53:00
8:53 PM,45.0,30.0,56,30.26,10.0,East,9.2,-,N/A,,Overcast,90,2012-12-31 02:53:00
9:53 PM,45.0,30.9,58,30.27,10.0,East,5.8,-,N/A,,Overcast,100,2012-12-31 03:53:00
10:53 PM,45.0,33.1,63,30.25,10.0,ESE,5.8,-,N/A,,Overcast,120,2012-12-31 04:53:00
11:53 PM,46.9,37.0,68,30.24,10.0,ESE,8.1,-,N/A,,Overcast,120,2012-12-31 05:53:00